Temp
5 4 4 6 4 4 4 4 5 5 4 5 5 5 7 7 8 8 8 8 8 8 8 7 7 7 7 7 6 5 5 5 5 4 4 4 4 4 4 3 3 2 2 3
3 3 5 3 4 5 3 3 4 5 4 4 4 4 7 7 8 9 9 8 8 8 8 7 7 7 7 6 6 6 5 5 4 4 4 5 5 4 4 4 3 3 3 2
4 5 4 4 4 4 3 3 4 4 4 3 4 4 7 8 8 9 9 9 9 9 8 8 7 7 7 6 6 6 5 5 5 5 5 5 5 4 4 4 3 3 3 2
2 3 3 4 4 3 3 3 3 4 3 5 3 7 7 7 8 8 8 9 9 9 9 9 8 7 6 6 6 5 5 5 5 5 5 5 4 5 4 4 4 3 3 2
3 4 3 3 3 2 3 3 3 2 3 3 4 4 7 6 7 7 8 8 9 9 9 9 8 7 6 6 6 5 5 5 5 5 5 5 5 5 4 4 4 3 3 2
4 3 2 2 2 3 3 3 2 2 3 4 5 5 7 7 6 6 7 8 8 8 8 8 8 7 6 6 6 5 5 5 5 5 5 5 5 5 4 4 3 3 2 2
3 3 3 2 2 3 1 2 3 3 4 6 4 4 6 7 5 5 7 7 7 7 7 7 7 7 6 6 6 5 5 5 5 5 5 5 4 4 4 4 3 3 2 2
2 4 3 2 2 3 2 2 3 3 5 5 3 4 6 5 4 4 6 7 7 7 7 7 7 6 6 6 5 5 5 5 5 4 4 4 4 3 3 3 3 2 2 2
-0 2 3 2 2 2 2 2 3 3 2 3 4 4 5 5 4 4 6 7 8 7 7 7 6 6 5 5 5 5 5 5 4 4 4 3 3 3 3 3 3 2 2 2
-4 -3 0 1 0 1 2 2 1 -0 2 2 5 5 5 5 5 5 7 7 6 6 6 6 6 5 5 5 5 5 4 4 4 4 4 3 3 3 3 2 2 2 2 2
-6 -5 -2 -2 0 2 2 1 1 2 2 5 6 5 5 4 4 5 6 6 6 6 6 5 5 5 5 5 5 4 4 4 3 4 4 3 3 3 3 3 2 2 2 2
-7 -6 -5 -3 -1 -1 -0 -1 2 2 3 2 4 5 4 3 3 3 4 5 5 5 5 5 5 4 4 4 4 4 4 4 3 4 4 3 3 3 3 2 2 2 1 1
-8 -6 -5 -3 -1 -2 -2 -2 -3 -2 -0 2 4 5 3 3 2 3 3 3 4 5 5 5 5 4 4 4 4 4 4 4 3 4 4 3 3 4 3 2 2 1 1 1
-9 -8 -7 -5 -3 -5 -5 -5 -5 -5 -3 1 3 3 2 2 2 2 3 3 3 4 5 5 5 4 4 4 4 4 4 4 3 4 4 3 4 3 2 1 0 1 1 1
-9 -8 -7 -6 -6 -6 -6 -6 -6 -6 -6 -5 -4 -1 1 2 2 2 2 2 3 4 4 4 4 4 4 4 4 4 4 4 3 4 4 4 3 3 2 1 0 0 1 1
-10 -9 -8 -8 -7 -6 -6 -5 -5 -6 -6 -7 -5 -4 -1 -0 0 3 2 1 3 4 3 3 4 4 4 3 3 4 4 4 4 3 4 3 3 3 2 1 0 1 0 1
-10 -10 -9 -8 -7 -6 -5 -5 -5 -5 -4 -5 -5 -4 -2 -1 -0 -0 2 3 2 3 4 4 4 4 4 4 3 4 4 4 4 3 4 3 3 3 2 2 0 -0 0 1
-11 -10 -10 -9 -7 -6 -5 -5 -5 -5 -4 -4 -5 -4 -3 -2 -0 1 2 2 2 3 3 4 4 4 4 4 4 4 4 4 4 3 3 3 3 3 2 2 1 0 0 1
-10 -11 -10 -9 -7 -6 -5 -5 -5 -5 -4 -4 -3 -3 -3 -2 -1 0 1 2 2 3 3 4 4 5 4 4 4 4 4 4 4 3 3 3 3 2 2 2 2 1 1 -0
-9 -11 -10 -9 -8 -7 -4 -4 -5 -5 -5 -5 -3 -3 -3 -1 -0 -1 -0 1 1 3 3 3 4 5 5 5 4 4 4 4 4 3 3 2 2 2 2 2 2 2 2 1
-9 -9 -10 -10 -9 -7 -5 -5 -6 -5 -5 -5 -5 -4 -3 -2 -0 -0 -0 0 1 2 3 3 4 4 5 5 4 4 4 4 3 3 3 2 2 2 2 2 2 2 2 2
-8 -9 -9 -9 -8 -7 -6 -5 -5 -5 -5 -5 -6 -6 -5 -4 -2 -0 -0 -0 0 1 2 3 4 4 5 5 4 4 3 3 3 3 3 2 2 2 2 2 2 2 1 1
-9 -8 -8 -9 -7 -6 -5 -5 -5 -5 -5 -5 -5 -5 -5 -4 -4 -3 -0 -0 -0 1 2 3 3 4 4 4 4 3 3 3 3 3 2 2 2 2 2 2 2 1 1 1
-9 -9 -9 -9 -8 -8 -7 -6 -6 -6 -5 -5 -5 -5 -4 -4 -4 -3 -2 -1 -1 0 2 3 3 4 4 4 4 3 3 3 3 3 3 2 2 2 2 2 1 1 1 1
-9 -9 -9 -8 -8 -7 -6 -6 -6 -6 -6 -5 -5 -5 -4 -4 -4 -3 -3 -2 -2 -1 1 2 3 4 4 4 4 3 3 3 3 2 2 2 2 2 1 1 1 1 1 1
-8 -8 -9 -7 -8 -8 -7 -7 -6 -6 -6 -6 -6 -5 -5 -4 -4 -4 -3 -2 -2 -2 -0 1 2 3 4 4 4 3 3 3 3 2 2 2 2 2 1 1 2 1 1 0
Height
3105 3106 3102 3108 3110 3110 3111 3109 3109 3110 3107 3104 3101 3097 3097 3098 3098 3097 3098 3099 3099 3100 3105 3104 3106 3108 3110 3111 3112 3113 3114 3114 3115 3115 3113 3112 3112 3111 3111 3110 3109 3108 3108 3108
3103 3095 3101 3103 3104 3103 3104 3104 3103 3103 3103 3099 3096 3091 3089 3090 3089 3090 3090 3090 3091 3093 3095 3097 3099 3101 3104 3106 3107 3108 3109 3109 3109 3108 3108 3106 3105 3104 3103 3102 3102 3101 3101 3101
3096 3097 3096 3097 3096 3097 3098 3098 3098 3098 3099 3095 3091 3085 3083 3083 3083 3082 3081 3080 3081 3083 3085 3087 3090 3094 3097 3099 3101 3103 3103 3103 3103 3103 3102 3100 3098 3097 3096 3096 3095 3096 3096 3096
3090 3091 3090 3091 3090 3094 3091 3095 3092 3092 3093 3092 3088 3080 3079 3078 3077 3077 3075 3073 3073 3074 3076 3077 3081 3086 3090 3093 3095 3096 3097 3097 3097 3097 3095 3094 3093 3092 3092 3090 3091 3091 3093 3093
3085 3082 3086 3085 3084 3088 3088 3088 3088 3088 3088 3087 3086 3085 3073 3073 3072 3072 3069 3066 3064 3065 3068 3070 3073 3079 3084 3087 3089 3091 3092 3092 3091 3091 3090 3089 3088 3087 3087 3087 3088 3089 3091 3091
3077 3081 3080 3081 3082 3083 3082 3082 3084 3085 3084 3079 3078 3079 3067 3069 3067 3069 3067 3063 3062 3061 3061 3064 3068 3073 3078 3081 3084 3086 3087 3087 3086 3086 3085 3084 3084 3084 3084 3085 3086 3087 3087 3088
3075 3071 3071 3074 3077 3077 3078 3081 3078 3082 3077 3067 3071 3072 3064 3065 3062 3063 3062 3060 3059 3059 3059 3061 3064 3070 3074 3077 3079 3081 3082 3082 3082 3082 3081 3081 3081 3082 3082 3084 3085 3086 3086 3087
3070 3066 3067 3062 3061 3070 3070 3072 3071 3069 3066 3065 3068 3063 3059 3056 3055 3057 3057 3054 3054 3055 3056 3058 3062 3066 3070 3073 3076 3077 3078 3078 3078 3078 3077 3079 3080 3080 3081 3083 3084 3085 3085 3085
3064 3056 3060 3059 3059 3062 3065 3063 3065 3065 3065 3067 3061 3058 3057 3054 3052 3052 3049 3048 3047 3050 3053 3055 3059 3063 3067 3070 3072 3073 3074 3075 3076 3074 3075 3078 3077 3078 3079 3080 3081 3082 3082 3082
3062 3055 3051 3053 3053 3052 3055 3060 3060 3060 3059 3056 3050 3051 3050 3050 3049 3046 3042 3041 3040 3045 3050 3054 3057 3061 3065 3067 3069 3070 3071 3071 3073 3072 3073 3075 3074 3075 3076 3076 3076 3077 3078 3078
3056 3054 3047 3047 3047 3047 3048 3048 3048 3050 3049 3040 3040 3045 3044 3048 3050 3045 3040 3040 3042 3045 3049 3052 3055 3059 3062 3064 3065 3067 3068 3069 3069 3069 3071 3072 3071 3071 3071 3071 3072 3072 3072 3073
3055 3050 3043 3040 3040 3038 3038 3036 3037 3034 3036 3038 3040 3039 3040 3043 3047 3046 3042 3041 3043 3045 3048 3051 3054 3057 3059 3061 3062 3063 3065 3067 3067 3068 3069 3069 3068 3067 3067 3068 3068 3067 3066 3065
3050 3046 3039 3034 3035 3032 3030 3030 3027 3023 3025 3027 3034 3034 3034 3036 3042 3043 3043 3044 3045 3046 3048 3051 3054 3055 3057 3058 3059 3061 3062 3064 3065 3065 3066 3066 3064 3063 3063 3065 3065 3064 3063 3061
3044 3041 3039 3034 3028 3029 3028 3026 3023 3030 3026 3023 3025 3029 3031 3030 3040 3041 3041 3043 3045 3046 3048 3050 3052 3053 3055 3056 3057 3058 3060 3061 3062 3063 3063 3063 3062 3062 3063 3063 3063 3063 3063 3061
3038 3034 3032 3029 3028 3025 3023 3024 3024 3023 3022 3023 3022 3023 3027 3029 3034 3038 3039 3041 3044 3044 3046 3048 3050 3051 3052 3054 3054 3056 3057 3058 3060 3061 3061 3061 3061 3062 3063 3063 3063 3064 3064 3064
3032 3028 3025 3021 3021 3020 3014 3017 3019 3020 3015 3019 3021 3017 3020 3026 3027 3032 3037 3038 3042 3042 3043 3044 3046 3048 3049 3051 3051 3054 3055 3056 3057 3059 3059 3061 3061 3062 3063 3064 3064 3063 3064 3065
3026 3023 3020 3013 3013 3013 3007 3007 3009 3013 3017 3013 3018 3019 3019 3022 3025 3027 3031 3033 3036 3040 3041 3042 3043 3044 3046 3047 3048 3050 3053 3054 3055 3057 3057 3060 3060 3061 3063 3064 3064 3064 3066 3067
3015 3017 3016 3011 3009 3001 3000 3004 3003 3002 3005 3005 3012 3016 3014 3018 3022 3022 3026 3029 3032 3036 3037 3039 3040 3041 3043 3044 3045 3047 3050 3052 3053 3055 3056 3059 3060 3061 3063 3064 3065 3066 3067 3070
3005 3009 3010 3009 3003 2999 2996 2997 2999 2998 3000 3003 3004 3010 3014 3017 3018 3017 3019 3023 3027 3030 3033 3035 3037 3037 3039 3040 3042 3044 3046 3049 3051 3054 3055 3058 3060 3062 3064 3065 3066 3068 3068 3070
2999 3000 3005 3004 3000 2992 2989 2992 2992 2993 2996 2997 2998 3004 3009 3011 3012 3015 3016 3018 3022 3025 3027 3031 3033 3034 3035 3037 3038 3041 3044 3046 3049 3051 3053 3057 3060 3062 3064 3066 3068 3069 3070 3072
2994 2991 2988 2992 2997 2989 2986 2986 2989 2993 2995 2992 2996 3000 3002 3005 3008 3011 3013 3014 3017 3020 3022 3026 3029 3030 3031 3032 3035 3038 3041 3044 3046 3049 3052 3055 3059 3062 3064 3067 3068 3070 3072 3074
2991 2989 2987 2989 2989 2983 2982 2985 2987 2990 2989 2991 2993 2996 2998 2999 2998 3004 3007 3010 3012 3014 3017 3021 3024 3026 3027 3029 3031 3034 3038 3042 3044 3047 3050 3054 3059 3062 3064 3067 3070 3071 3074 3076
2986 2985 2984 2983 2976 2978 2978 2980 2981 2982 2986 2988 2991 2992 2993 2993 2995 2995 3000 3004 3007 3010 3013 3016 3020 3022 3024 3026 3029 3031 3034 3039 3042 3045 3048 3053 3058 3061 3064 3068 3071 3073 3075 3077
2977 2977 2976 2975 2971 2973 2975 2977 2977 2978 2980 2981 2982 2984 2986 2986 2988 2991 2995 3000 3003 3006 3008 3011 3015 3018 3021 3023 3026 3029 3032 3036 3040 3043 3047 3052 3057 3061 3064 3067 3070 3074 3077 3078
2971 2969 2969 2967 2968 2970 2969 2971 2974 2977 2979 2979 2979 2980 2982 2983 2986 2988 2993 2996 2999 3001 3003 3006 3010 3013 3017 3020 3023 3026 3029 3032 3037 3041 3045 3050 3056 3060 3064 3067 3070 3074 3077 3080
2964 2964 2962 2961 2965 2964 2966 2969 2969 2970 2973 2975 2975 2977 2980 2981 2982 2984 2987 2991 2994 2996 2998 3001 3005 3008 3011 3015 3019 3022 3026 3029 3035 3039 3042 3048 3055 3060 3063 3067 3071 3075 3078 3080
Wind_Speed
26 26 27 24 22 23 22 19 22 21 18 26 23 27 31 29 29 31 28 28 28 27 24 26 24 23 20 19 22 21 20 19 18 20 22 24 24 25 25 24 24 25 27 27
26 33 28 22 26 28 25 25 27 26 21 22 22 26 30 29 29 26 26 28 31 32 32 32 30 26 22 20 19 21 20 20 20 22 25 26 25 24 21 22 24 24 23 22
29 24 16 21 21 28 24 26 27 26 25 26 27 31 24 21 16 14 17 23 29 34 36 36 34 30 26 23 21 20 21 21 23 24 25 23 22 19 19 19 19 19 19 20
25 27 32 29 26 20 25 21 20 20 18 18 7 13 18 21 14 12 20 24 24 27 31 32 40 35 28 24 23 22 22 22 22 22 20 19 17 16 16 15 16 14 13 13
16 23 22 28 31 22 23 19 16 12 14 20 21 16 15 13 19 10 5 9 15 26 27 31 30 37 32 26 24 23 21 21 20 18 17 15 14 15 14 13 10 11 13 11
25 24 23 21 19 23 18 13 13 16 13 17 22 19 16 16 10 11 8 3 6 11 18 24 24 31 29 26 24 21 19 17 16 14 12 11 13 14 11 10 11 13 12 12
20 26 28 25 21 21 22 12 4 7 10 15 12 10 22 15 14 17 19 15 12 9 14 16 20 23 23 22 20 17 15 15 13 10 8 9 11 11 10 11 11 13 12 11
28 29 23 25 33 26 29 25 11 9 12 12 9 10 9 5 14 6 13 19 15 12 14 20 22 20 21 18 15 14 13 13 10 8 5 8 9 9 11 13 13 14 14 12
15 33 28 22 20 26 26 30 27 13 11 12 15 13 13 9 3 11 20 20 19 19 17 18 21 19 15 13 11 12 13 11 10 6 5 10 9 9 12 15 16 16 15 16
8 18 31 26 16 24 33 21 11 12 7 8 12 18 14 10 16 15 13 12 15 20 21 20 18 15 11 9 10 11 11 10 9 6 8 12 10 12 13 16 17 18 20 21
15 11 27 18 23 25 29 31 21 18 18 9 8 6 15 10 4 11 3 10 14 17 19 18 16 14 10 8 8 9 11 10 9 8 11 13 14 16 17 17 19 20 22 25
17 14 19 17 24 15 24 26 36 25 18 25 18 10 10 13 6 15 23 9 7 12 16 16 13 12 9 8 8 9 9 9 8 8 10 12 14 16 19 16 14 16 19 21
14 15 20 24 17 24 18 18 17 27 16 24 18 10 18 21 11 6 6 14 14 6 9 10 8 8 8 8 7 8 9 9 9 7 7 10 12 12 9 7 7 6 7 1
18 22 25 25 22 17 17 17 20 13 7 19 27 12 25 22 18 18 14 8 7 7 4 5 4 2 6 8 8 7 8 9 9 7 6 8 5 4 7 3 2 1 3 8
15 22 27 34 32 30 28 23 20 19 17 8 2 15 15 22 22 20 20 11 2 3 8 7 1 3 4 6 8 7 8 9 9 8 5 6 5 8 6 5 4 6 5 6
15 18 20 28 34 35 37 32 26 21 24 24 21 24 20 16 18 32 24 24 9 8 4 5 2 2 4 6 8 9 9 9 10 9 4 5 7 10 7 6 6 3 8 11
21 20 19 29 28 30 38 37 34 31 28 29 25 26 16 7 13 9 17 25 24 20 13 9 6 5 6 9 9 10 10 10 10 10 6 6 8 9 9 8 6 10 13 15
30 24 23 25 22 21 27 24 21 20 19 26 13 16 13 10 10 13 18 19 19 21 21 15 11 9 10 12 12 11 11 11 12 12 8 7 9 10 11 9 8 11 12 12
29 29 24 23 26 22 12 16 16 19 17 21 20 21 18 20 10 13 19 28 19 26 24 16 14 13 14 15 16 13 12 13 13 13 10 10 10 10 12 10 10 11 11 16
13 26 29 22 17 9 16 17 22 19 18 16 14 24 32 23 23 15 17 19 16 21 23 20 16 16 16 17 18 15 14 14 14 15 13 12 12 12 13 12 13 13 15 14
10 21 39 34 27 18 16 15 13 10 5 12 16 21 29 28 22 23 20 21 20 22 19 19 17 17 17 19 18 16 14 15 16 16 15 14 15 15 15 14 15 15 16 16
14 9 11 27 21 24 11 18 21 10 7 14 12 12 13 18 25 28 24 22 20 21 18 20 19 17 17 16 18 17 15 17 17 19 17 15 17 17 17 17 16 18 17 17
13 13 14 13 28 5 12 9 8 14 14 16 13 16 17 17 15 24 27 24 20 22 20 21 22 18 17 15 16 17 17 17 18 20 19 19 20 20 19 19 18 17 17 16
22 21 22 19 18 22 24 21 15 13 18 11 12 11 14 22 24 20 25 24 20 22 23 20 22 21 19 20 17 18 17 18 19 21 21 22 23 22 22 22 21 17 14 13
17 14 16 25 23 18 9 16 13 13 21 23 23 20 15 12 21 28 27 25 21 18 22 22 25 24 23 22 21 19 19 20 21 23 25 25 25 24 24 23 21 18 15 14
19 17 20 20 14 15 16 15 17 20 25 29 31 26 20 19 17 17 27 31 25 18 20 20 24 25 27 26 25 22 21 22 23 25 28 28 27 27 26 22 18 15 14 11
Wind_Direction
243 239 239 259 248 255 267 270 274 272 280 279 269 269 271 271 266 265 255 250 252 250 246 241 239 237 236 237 236 237 241 247 256 267 276 278 278 271 266 265 265 256 259 260
246 244 256 248 253 264 259 267 272 281 279 274 284 280 277 274 274 269 263 252 248 249 245 245 242 240 237 237 238 237 241 251 261 269 274 277 273 267 265 263 259 261 266 260
250 257 259 259 270 257 252 256 269 273 280 284 289 289 285 281 277 262 255 252 244 244 246 242 240 240 239 240 241 241 243 252 259 267 272 271 269 270 270 265 263 262 258 252
260 257 254 254 256 247 257 260 268 287 278 275 282 292 284 283 283 272 261 250 245 242 241 245 237 236 233 238 238 243 246 252 261 267 268 268 267 271 267 262 256 257 244 239
258 275 263 251 254 249 255 260 273 257 266 278 267 269 284 281 290 227 280 275 245 239 239 235 231 229 228 233 238 240 245 254 262 264 263 264 272 266 258 253 240 232 235 225
269 259 257 256 261 242 247 244 270 270 265 254 265 236 276 259 254 241 297 11 292 240 226 222 219 220 224 229 232 233 246 254 256 255 258 271 273 258 237 222 215 231 227 212
274 261 263 252 251 238 219 218 217 253 228 259 266 234 248 270 254 257 261 265 289 267 222 209 207 206 214 215 222 234 240 243 246 251 262 277 267 241 223 221 226 222 218 213
267 272 248 243 233 230 219 211 188 229 248 256 252 241 256 165 226 241 275 269 255 242 222 205 199 202 200 212 223 228 229 235 241 244 267 271 252 228 231 229 234 232 226 229
279 254 257 246 247 224 230 223 234 245 240 272 250 259 264 252 259 294 281 264 251 222 204 186 184 187 198 213 222 223 225 228 238 238 264 255 241 241 244 245 243 246 245 242
270 285 256 261 252 232 223 229 189 198 216 221 234 240 237 266 298 324 282 252 203 187 187 179 180 187 198 211 216 221 225 227 241 242 255 258 255 257 252 250 251 250 249 246
310 274 263 277 246 239 222 227 222 220 220 231 230 239 222 212 337 343 272 186 180 182 186 182 181 186 198 203 210 220 225 230 243 254 260 261 259 262 261 258 260 261 256 251
295 285 282 282 243 246 234 240 220 211 200 227 247 196 174 164 115 49 60 76 183 185 185 183 184 191 198 200 206 218 224 230 243 254 260 258 256 262 264 266 271 278 280 274
275 265 281 273 272 236 242 238 254 244 251 218 208 227 201 212 201 240 11 41 51 112 180 189 200 207 208 207 210 218 222 232 246 253 258 265 275 277 255 231 272 276 291 204
266 260 252 258 266 302 302 288 296 321 277 232 217 168 184 192 224 242 269 341 24 32 108 160 191 220 231 223 221 222 225 235 245 240 258 280 260 181 160 164 318 129 70 95
266 265 261 257 263 275 280 283 287 284 288 291 298 222 225 192 209 218 248 291 342 351 107 58 108 218 251 241 229 231 229 233 237 228 259 270 207 170 171 170 156 178 191 164
265 270 270 267 260 262 272 271 272 271 285 276 281 282 233 237 238 232 232 253 249 169 216 298 323 305 241 245 233 227 232 228 227 222 216 238 206 178 167 159 145 165 152 160
263 263 268 273 266 266 261 262 265 260 254 265 276 288 213 236 252 226 229 235 244 247 265 261 247 254 243 229 231 219 228 225 219 221 194 219 206 179 172 163 153 122 138 145
252 252 261 267 273 260 257 256 264 261 251 252 243 264 231 246 227 228 218 227 231 242 255 257 251 252 261 236 231 220 223 225 217 218 184 194 173 157 149 145 143 143 143 144
246 242 247 258 267 264 250 246 244 234 251 229 240 238 248 255 237 235 230 247 256 242 251 256 251 251 257 246 227 215 214 219 215 214 184 188 182 169 161 149 145 145 141 145
244 234 230 243 254 252 243 241 246 245 238 222 214 215 225 233 251 242 242 241 243 242 243 244 248 244 257 241 228 217 214 213 210 210 189 186 186 172 161 155 147 145 138 135
267 243 216 225 239 261 245 235 189 205 167 205 199 207 216 210 221 239 246 250 246 246 249 235 239 242 255 232 224 216 211 212 205 203 192 184 185 174 163 160 151 147 142 136
275 281 229 222 230 245 239 231 232 244 219 201 196 196 213 209 212 231 233 239 244 251 241 233 233 239 239 220 214 206 203 210 204 199 189 181 182 174 167 162 158 150 143 140
266 254 266 241 230 264 205 228 274 259 249 214 233 244 247 236 234 218 220 224 229 245 243 237 230 231 225 216 209 202 202 204 208 198 185 179 183 174 171 164 161 158 152 146
281 260 259 258 279 245 252 263 257 256 214 234 286 268 248 256 254 234 216 211 213 231 235 233 231 231 226 219 208 202 198 202 207 200 183 179 183 178 174 168 163 162 158 153
281 261 264 258 260 259 233 233 252 263 237 264 276 264 258 252 247 252 238 217 208 214 226 232 234 230 223 220 208 206 201 200 204 197 182 178 184 180 177 174 170 170 171 165
291 288 253 260 272 275 257 260 260 244 242 255 261 261 256 262 260 258 246 235 222 208 209 217 222 222 221 217 209 205 204 201 201 196 181 179 186 185 181 181 177 170 167 166